This is the latest recevied weather packets stored in our database for station/object N2WH. If no packets are shown the sender has not sent any weather packets the latest 10 day(s).
| Time | Temp. | Humidity | Pressure | Rain* | Wind** | Luminosity | Snow |
|---|---|---|---|---|---|---|---|
| 1777515907 | 8.89° C | 98% | 1011.7 hPa | 3.05 mm | - | 0 W/m² | - |
| 1777515603 | 8.89° C | 98% | 1011.8 hPa | 3.05 mm | - | 0 W/m² | - |
| 1777515300 | 8.89° C | 97% | 1012 hPa | 3.05 mm | - | 0 W/m² | - |
| 1777514996 | 8.89° C | 97% | 1011.7 hPa | 3.05 mm | - | 0 W/m² | - |
| 1777514692 | 8.89° C | 97% | 1011.8 hPa | 4.32 mm | - | 0 W/m² | - |
| 1777514390 | 8.89° C | 97% | 1011.7 hPa | 4.83 mm | - | 0 W/m² | - |
| 1777514086 | 8.89° C | 96% | 1011.6 hPa | 4.83 mm | - | 0 W/m² | - |
| 1777513783 | 8.89° C | 96% | 1011.5 hPa | 4.83 mm | - | 0 W/m² | - |
| 1777513481 | 9.44° C | 96% | 1011.9 hPa | 3.05 mm | - | 0 W/m² | - |
| 1777513177 | 9.44° C | 95% | 1011.7 hPa | 1.27 mm | - | 0 W/m² | - |
| 1777512873 | 9.44° C | 95% | 1011.8 hPa | 3.05 mm | - | 0 W/m² | - |
| 1777512570 | 9.44° C | 95% | 1011.8 hPa | 3.05 mm | - | 0 W/m² | - |
| 1777512266 | 9.44° C | 94% | 1011.7 hPa | 3.05 mm | - | 0 W/m² | - |
| 1777511963 | 9.44° C | 94% | 1011.8 hPa | 1.78 mm | - | 0 W/m² | - |
| 1777511661 | 9.44° C | 94% | 1011.6 hPa | 1.27 mm | - | 0 W/m² | - |
| 1777511359 | 9.44° C | 94% | 1011.7 hPa | 1.27 mm | - | 0 W/m² | - |
| 1777511054 | 9.44° C | 93% | 1011.7 hPa | 0 mm | - | 0 W/m² | - |
| 1777510751 | 9.44° C | 93% | 1011.6 hPa | 0 mm | - | 0 W/m² | - |
| 1777510448 | 9.44° C | 92% | 1011.6 hPa | 0 mm | - | 0 W/m² | - |
| 1777510143 | 10° C | 92% | 1011.5 hPa | 0 mm | - | 0 W/m² | - |
| 1777509841 | 10° C | 91% | 1011.4 hPa | 1.78 mm | - | 0 W/m² | - |
| 1777509535 | 10° C | 90% | 1011.4 hPa | 3.05 mm | - | 0 W/m² | - |
| 1777509233 | 10° C | 89% | 1011.3 hPa | 1.27 mm | - | 0 W/m² | - |
| 1777508930 | 10° C | 88% | 1011.1 hPa | 0 mm | - | 0 W/m² | - |
| 1777508627 | 10° C | 87% | 1011.3 hPa | 0 mm | - | 0 W/m² | - |
* Rain latest hour (hover to see other rain measurements)
** Current wind speed in m/s (hover to see current wind gust speed)